Wind_Speed
13 13 13 13 13 13 13 13 12 12 10 9 9 8 7 6 6 6 6 7 9 10 10 10 9 8 8 8 8 7 6 7 8 11 12 6 8 12 12 12 14 11 9 14 15 15 17 17 17 16 13 10 11 12 8 12 14 8 1 1 2 1 1 1 3 4 5 9 11 12 9 5 7 11 10 3 10 24 23 22 23 20 24 28 32 37 36 35
13 13 13 13 13 13 13 13 13 12 11 10 9 9 8 8 7 7 7 7 8 9 10 11 10 9 8 8 8 8 7 7 8 12 9 5 11 16 15 15 16 15 12 15 17 18 19 19 18 16 14 10 11 11 6 11 16 6 2 1 3 2 2 2 5 4 4 11 13 14 12 7 9 12 10 4 10 22 20 21 27 27 27 31 36 36 34 37
13 13 13 13 13 13 13 13 13 12 12 11 10 9 9 8 8 8 7 7 7 8 9 10 10 10 9 8 8 8 7 7 8 6 3 5 11 15 16 16 17 17 13 13 16 18 20 19 17 15 14 11 12 13 8 10 14 5 3 2 4 3 3 3 6 5 9 17 15 14 13 7 9 12 11 9 12 18 16 20 27 29 33 35 36 35 36 36
15 14 13 12 12 12 13 13 13 13 12 11 10 10 9 9 8 8 8 7 8 9 8 9 9 10 10 8 7 7 7 5 1 4 5 1 5 12 16 17 17 17 14 13 15 19 21 18 14 12 12 11 13 13 9 10 10 4 4 2 3 4 3 4 8 11 17 20 15 15 15 9 10 11 15 17 14 11 13 24 33 35 39 38 36 36 35 35
19 17 16 14 12 12 12 12 12 13 13 12 11 10 10 9 9 8 8 7 8 9 8 8 7 9 10 8 7 5 4 3 4 6 6 4 4 8 13 16 18 18 16 16 17 20 21 17 12 11 11 10 10 8 8 14 11 4 3 4 3 5 3 6 12 15 18 19 17 14 13 10 8 10 16 18 12 6 11 27 38 41 43 40 39 37 34 35
21 20 19 18 15 13 12 12 12 12 12 12 11 11 10 9 9 9 8 8 8 8 8 8 6 7 8 8 8 5 1 2 6 6 4 4 5 6 11 15 18 20 19 19 20 21 20 17 11 12 11 8 7 6 8 16 15 3 2 4 2 6 5 8 13 16 19 20 17 13 12 12 12 10 11 13 8 6 15 32 40 41 43 41 39 36 35 35
21 21 21 20 18 16 14 12 12 12 12 11 11 11 10 10 9 9 8 8 8 8 8 8 6 6 6 7 7 5 6 5 6 6 6 5 4 5 10 15 18 21 22 23 24 22 19 16 12 12 10 6 6 6 7 15 14 4 2 3 2 6 7 11 13 15 19 19 17 17 15 12 12 10 10 10 6 10 25 37 40 40 41 39 37 35 35 35
20 20 20 20 19 18 16 14 13 12 12 11 11 10 10 10 9 9 9 8 9 8 8 7 6 6 5 5 5 5 8 6 4 6 7 4 1 4 9 15 19 22 24 26 25 22 18 16 16 14 7 5 7 5 7 10 4 2 3 4 4 7 6 10 14 16 18 19 19 19 13 8 12 11 9 4 6 23 37 39 39 40 39 37 36 35 34 34
19 19 19 19 18 17 16 15 14 12 11 11 11 10 9 9 9 9 9 9 9 8 8 7 7 5 4 4 3 4 4 4 5 5 5 2 3 4 7 13 20 24 25 26 24 19 16 16 17 13 6 8 10 6 10 8 1 3 5 7 9 10 6 4 9 15 17 18 20 17 9 10 16 14 7 3 11 33 39 38 39 39 38 36 35 35 32 32
19 18 17 17 17 16 16 15 14 13 12 11 11 9 9 8 8 9 9 9 9 8 8 7 7 5 5 5 2 1 3 7 4 2 1 4 6 7 8 11 19 25 26 26 25 21 17 16 15 9 8 8 8 6 9 9 5 11 13 15 14 13 8 1 1 9 13 15 19 16 7 9 16 10 3 5 19 34 37 37 37 36 36 35 34 34 31 30
18 17 16 16 16 16 15 15 14 13 12 11 10 9 8 7 8 8 8 8 8 8 7 7 7 6 6 6 6 5 6 6 2 2 3 6 9 10 8 11 20 26 28 27 25 23 18 15 10 6 6 5 7 7 5 8 16 21 21 19 14 12 7 0 2 6 6 7 15 18 11 7 8 6 7 15 24 33 36 34 33 34 33 32 33 33 31 30
17 17 17 17 16 16 15 16 15 13 12 11 10 9 7 6 7 8 8 7 7 7 7 6 6 6 6 9 11 7 8 6 4 3 4 5 8 9 8 11 21 27 29 28 24 22 14 7 6 8 7 7 7 5 5 10 20 20 19 12 8 8 5 1 2 3 3 1 11 16 11 5 2 7 13 20 27 31 33 33 32 32 30 31 33 32 31 30
17 17 18 18 18 18 17 16 16 15 13 11 9 8 7 6 6 7 6 5 6 6 6 5 6 6 6 9 8 9 11 7 4 4 5 6 7 10 10 13 21 27 27 24 19 15 10 8 11 14 13 10 4 3 5 11 19 12 10 7 6 5 3 1 3 1 3 2 6 8 5 3 1 5 12 20 29 29 29 31 30 29 28 30 32 31 30 29
16 16 18 19 19 20 19 18 17 15 14 11 8 7 6 5 5 6 4 3 5 6 6 5 5 6 7 8 3 10 12 8 6 7 4 4 8 11 12 15 22 27 25 20 14 11 9 9 14 17 14 9 5 7 5 9 12 7 5 3 4 2 1 2 3 5 7 7 4 6 3 5 3 4 10 20 30 29 29 30 30 29 28 29 31 31 29 28
15 16 17 19 20 20 20 19 18 16 14 12 8 6 6 5 5 4 3 2 4 5 5 3 4 5 9 10 4 10 11 11 10 7 3 4 10 14 14 18 23 25 20 15 10 7 6 10 13 13 9 6 5 5 2 6 3 3 5 2 2 2 2 1 3 6 4 7 8 2 4 3 2 5 9 17 23 25 28 30 31 30 29 30 31 30 29 29
13 14 16 19 20 21 20 19 19 17 14 11 7 6 7 5 4 4 3 3 3 4 3 1 3 5 7 7 6 9 11 13 8 6 5 5 11 15 15 17 22 22 15 9 5 5 8 11 9 5 3 2 2 1 4 4 2 2 2 4 4 4 3 1 3 7 4 5 7 3 2 1 2 6 9 14 14 19 28 29 31 32 31 33 32 30 29 30
13 13 15 18 19 21 20 18 18 16 13 9 6 6 7 5 4 4 4 4 3 3 2 2 3 6 7 5 5 8 12 13 9 8 6 5 11 14 15 15 19 20 13 7 6 10 10 8 4 2 2 1 3 3 4 2 4 4 2 5 6 7 6 4 4 7 7 6 5 3 3 3 4 8 11 12 9 17 26 26 31 32 32 33 31 30 30 30
13 13 15 17 19 20 19 17 17 14 10 7 5 6 7 5 5 5 5 5 4 3 3 5 4 4 5 7 5 7 14 14 13 12 7 6 11 14 15 12 14 15 12 9 8 9 6 3 2 1 3 1 1 3 3 3 3 5 5 4 4 6 7 7 6 8 10 8 7 6 5 5 7 8 10 10 7 12 16 19 29 33 32 34 30 30 32 28
13 13 15 17 19 19 18 16 15 11 8 5 5 5 5 5 5 6 7 7 6 3 3 6 8 2 3 7 7 6 13 13 12 14 12 10 12 14 14 10 11 13 10 6 5 6 4 2 2 1 2 4 5 5 5 3 2 3 6 6 8 7 5 6 4 9 13 8 7 7 6 7 9 7 6 9 9 9 9 11 23 33 33 33 29 30 32 28
13 14 15 17 19 19 17 15 14 11 7 4 4 4 4 5 3 3 7 11 10 9 11 12 13 13 14 13 10 4 10 12 12 15 15 13 15 18 16 12 12 12 7 4 3 6 5 3 2 5 5 8 8 5 6 6 6 5 4 7 10 8 5 4 3 7 11 6 4 5 5 7 10 10 7 10 11 8 10 11 15 28 32 31 29 30 32 29
13 14 15 17 19 18 16 15 14 11 7 4 4 4 5 5 2 3 8 12 14 15 17 18 17 21 21 16 6 4 6 11 12 15 15 14 17 17 16 13 8 5 5 7 4 3 5 4 5 8 8 10 8 4 5 7 8 7 3 6 7 6 3 3 5 6 5 2 2 3 6 5 7 9 4 6 10 7 9 12 12 20 25 27 30 32 31 29
14 14 15 16 17 17 15 15 14 10 5 4 5 5 6 7 7 9 9 11 16 18 18 17 18 21 23 18 8 8 10 10 12 15 15 14 15 13 13 10 5 3 4 5 3 1 3 4 8 10 9 9 8 6 7 9 7 6 3 5 5 6 6 4 6 7 2 1 2 3 6 4 3 5 2 2 3 7 10 11 12 14 15 20 29 32 29 29
15 14 15 15 16 16 14 14 13 8 4 4 6 6 6 7 8 12 10 8 13 17 15 14 16 19 20 18 12 14 14 13 11 16 17 14 16 15 13 9 4 4 4 3 4 3 4 6 11 12 8 8 9 8 8 8 6 4 4 5 5 10 9 1 3 6 2 2 5 5 5 3 1 3 3 5 3 4 7 8 9 9 10 14 23 27 27 31
15 14 14 13 14 15 13 12 9 6 5 3 4 5 5 6 7 11 12 5 6 11 12 13 15 17 17 13 10 14 16 15 13 16 17 16 17 14 12 10 5 5 5 6 7 5 5 9 12 11 7 8 9 9 8 6 6 5 5 6 6 11 10 6 8 6 3 3 5 7 4 2 3 5 5 2 2 1 2 5 7 5 7 11 18 20 22 31
15 13 13 12 13 14 12 9 7 6 7 7 8 6 5 5 6 9 9 3 3 6 7 9 12 14 14 10 5 12 17 14 15 17 18 18 18 12 9 11 7 5 7 7 7 5 8 13 11 9 7 8 8 9 9 6 5 5 5 10 12 13 10 13 15 8 4 1 5 6 3 1 3 5 5 1 2 3 2 2 6 6 6 8 16 16 15 27
15 13 12 12 12 13 11 6 5 7 8 10 13 11 6 3 5 9 6 2 3 4 2 3 7 5 6 8 7 14 12 8 14 20 21 19 18 12 7 7 6 6 8 6 4 3 7 12 9 8 9 10 8 9 9 7 4 5 5 11 15 17 15 17 17 9 3 2 5 6 2 1 2 3 5 2 2 3 0 2 7 9 10 8 14 15 12 20
14 12 11 11 12 12 9 5 3 5 7 10 11 11 9 5 5 9 5 3 3 3 1 2 4 1 4 10 12 10 4 7 13 19 23 20 18 16 6 3 5 6 6 5 3 4 6 10 8 8 10 8 7 8 8 7 6 5 5 12 18 19 19 19 15 6 3 3 3 5 2 3 1 2 6 6 3 2 2 4 7 11 14 12 13 14 12 16
13 12 10 11 12 12 9 6 4 6 7 9 10 7 6 5 7 8 2 2 2 1 1 2 2 2 6 10 12 8 3 6 8 14 25 21 16 14 7 5 4 3 4 4 4 6 6 8 8 8 8 6 6 9 9 8 6 6 4 16 19 18 19 17 11 5 4 4 3 6 3 3 0 2 7 7 6 6 7 7 7 12 18 17 15 15 13 13
12 12 11 10 11 11 8 6 6 7 4 7 10 6 4 6 7 4 4 3 1 1 2 3 2 5 8 6 9 11 5 2 5 15 26 20 15 12 5 6 5 4 6 5 6 6 6 11 12 8 6 6 8 10 8 7 6 4 8 13 13 12 11 9 7 5 5 4 4 8 6 4 0 2 6 7 6 8 9 7 9 15 21 21 18 16 14 12
11 11 11 10 9 9 6 4 4 4 4 8 9 6 7 8 3 3 2 1 0 2 2 3 3 7 7 2 4 7 4 2 7 16 19 15 15 12 5 6 5 3 4 3 5 7 8 14 12 7 7 9 10 10 9 10 8 5 8 8 9 10 5 3 3 4 5 0 5 10 8 4 2 3 6 6 5 8 9 6 9 16 20 23 23 19 15 12
11 12 11 9 9 8 7 5 3 2 4 7 7 7 8 6 3 4 1 1 1 1 1 2 4 5 6 3 1 2 1 2 5 11 10 7 8 6 2 3 4 2 3 4 4 4 5 9 7 5 10 10 8 8 9 9 5 4 5 5 7 5 2 3 3 4 3 4 5 11 9 3 2 4 6 6 3 5 9 8 9 14 19 25 25 22 18 14
10 11 9 9 9 9 9 6 3 4 4 4 6 8 5 3 3 1 2 1 1 2 2 3 4 3 5 4 3 2 2 1 3 6 6 4 3 3 3 3 3 1 3 3 3 4 3 6 5 4 7 8 5 3 6 4 2 5 5 5 5 2 1 2 1 1 3 5 5 13 9 2 0 2 2 6 5 3 6 8 12 16 21 26 26 23 21 16
10 10 8 8 9 8 7 4 3 5 4 3 7 6 3 5 1 4 2 1 2 3 3 3 4 4 6 4 4 3 3 2 4 4 5 4 3 4 5 5 6 4 1 3 2 3 2 6 5 3 3 6 6 3 3 3 1 3 4 5 5 4 3 3 4 3 2 2 1 8 8 2 2 2 5 1 2 7 8 5 10 13 16 22 23 22 20 14
9 9 9 8 7 5 4 2 3 5 4 3 6 4 5 3 2 3 2 3 3 4 3 5 5 4 6 4 3 3 4 4 5 6 5 2 3 2 4 6 6 5 2 2 3 3 4 4 5 2 3 4 5 5 6 4 1 2 4 5 5 4 4 4 4 3 2 2 3 4 4 1 2 3 7 5 11 16 15 11 7 8 9 14 18 20 21 14
9 8 9 8 5 3 2 3 5 5 2 3 5 4 3 0 3 2 3 4 2 4 3 4 6 4 3 3 2 2 4 3 3 4 4 3 2 2 3 4 3 4 3 1 3 2 5 5 6 4 4 4 4 4 6 5 1 2 2 5 3 3 3 3 3 4 6 4 3 4 2 1 2 4 7 6 11 15 14 11 7 8 8 10 11 15 19 13
8 8 9 6 3 1 2 2 5 3 1 4 5 3 0 3 3 1 3 4 2 3 3 4 3 2 1 1 2 2 3 3 3 3 2 3 2 2 1 2 1 3 4 3 2 1 3 5 6 2 2 3 5 6 5 5 2 1 1 3 4 4 3 3 2 5 7 5 3 2 3 3 3 3 6 5 8 9 9 10 7 4 7 11 11 10 12 11
8 9 9 5 3 4 3 1 2 2 3 4 4 1 3 4 3 3 3 5 5 3 4 4 3 2 1 1 3 4 0 0 1 2 1 2 2 6 4 2 4 5 1 3 3 2 3 3 6 1 2 1 5 9 6 4 5 3 1 3 3 1 2 3 3 4 4 4 1 1 3 4 3 1 1 2 8 8 8 9 10 9 9 15 15 12 10 11
7 9 9 6 6 6 4 3 1 1 3 4 1 3 3 4 4 3 3 5 5 3 5 3 1 1 3 3 3 5 5 3 4 1 1 2 2 4 5 2 5 7 7 3 1 1 3 1 6 2 4 1 3 8 4 4 5 6 3 1 2 2 1 0 2 3 3 3 2 1 2 1 1 1 3 4 7 9 8 8 8 9 10 16 19 17 14 12
8 8 7 5 8 7 6 4 1 0 2 3 1 3 2 4 5 7 11 10 4 3 4 2 1 2 2 4 1 4 8 8 7 4 3 4 1 3 6 5 5 10 12 6 2 1 2 4 4 5 2 2 4 4 3 3 4 3 2 3 2 3 3 1 1 3 4 4 5 1 2 1 1 1 4 5 7 10 8 7 8 9 10 14 19 20 18 16
8 7 5 5 11 8 7 6 2 2 1 1 3 3 4 4 6 11 14 12 4 4 4 2 1 3 0 5 4 3 7 9 6 4 3 4 1 1 8 7 4 8 11 6 4 2 2 4 1 5 2 3 2 0 4 4 1 2 3 2 1 1 1 1 1 2 5 4 5 4 1 2 2 0 2 2 5 9 8 6 8 10 12 14 16 20 20 18
6 4 4 4 10 8 9 8 3 1 2 2 2 3 6 5 7 9 11 13 7 7 8 2 3 3 1 5 3 2 4 6 4 4 2 3 3 2 7 9 5 6 7 4 5 3 2 2 1 3 3 3 3 5 5 7 5 4 3 2 3 1 0 1 2 2 3 4 4 5 4 1 1 3 3 1 3 9 11 10 10 12 15 18 18 21 23 19
3 3 1 5 10 12 10 6 2 1 3 3 4 4 6 7 6 5 7 11 7 6 8 5 4 4 3 3 2 1 4 3 3 3 0 1 4 2 7 14 12 7 4 1 3 3 1 2 2 2 2 2 4 3 3 5 4 5 3 1 3 3 3 4 3 2 3 4 4 4 4 3 3 2 1 1 7 14 15 14 14 13 16 19 20 22 23 21
7 6 4 7 8 15 9 0 3 1 2 5 7 6 6 6 4 6 8 8 6 4 5 5 3 4 4 1 2 3 4 2 1 1 0 1 3 4 7 15 14 8 4 2 3 5 3 2 3 3 4 4 4 4 5 5 5 4 1 2 0 2 4 4 4 4 4 4 4 4 3 2 2 1 1 4 13 17 15 15 17 16 16 18 20 22 23 23
11 10 5 1 5 15 11 1 2 2 3 4 5 7 10 8 4 6 5 4 4 2 2 4 3 5 4 3 3 3 3 2 2 3 1 1 1 5 7 12 12 6 3 1 2 5 4 2 3 2 3 4 5 6 6 6 4 2 1 3 3 2 8 7 3 4 3 1 3 5 4 2 3 5 4 5 10 15 14 15 18 18 18 19 20 22 24 25
9 7 5 4 2 13 10 4 4 3 2 1 2 4 5 6 4 6 5 4 4 3 2 2 2 7 4 2 3 2 2 4 1 2 1 1 1 4 6 9 9 5 4 5 4 3 2 3 3 4 4 3 2 1 2 3 2 1 1 2 4 4 7 6 4 4 3 3 3 4 5 5 4 6 4 2 7 12 14 15 17 18 19 20 21 23 25 26
5 3 4 6 2 7 8 8 6 3 1 2 1 2 3 3 4 6 8 5 7 5 3 4 4 6 4 2 2 4 2 3 2 1 2 2 1 3 4 7 8 8 9 12 10 3 3 4 3 5 6 6 5 4 4 3 1 2 3 4 5 5 6 6 5 3 4 6 5 2 9 13 8 7 6 4 7 10 12 16 17 17 19 22 22 23 25 26
3 0 2 6 4 1 3 3 5 4 2 3 2 1 3 2 3 5 7 4 6 6 4 4 4 4 3 1 2 4 5 3 3 3 3 1 2 3 5 7 9 13 12 13 13 5 4 4 4 3 3 5 6 1 3 4 5 6 7 8 7 6 7 6 5 6 7 7 4 3 11 16 12 9 8 8 8 8 11 17 19 19 21 24 23 23 23 24
4 2 3 6 3 2 3 3 2 3 2 4 2 0 1 1 2 5 5 6 6 6 4 4 4 5 4 3 3 3 5 5 4 3 2 2 3 3 6 6 9 14 12 9 11 6 4 3 4 2 3 2 2 5 7 7 5 6 9 9 7 6 7 7 6 7 6 7 8 9 10 13 13 11 10 10 12 14 15 18 21 21 22 25 24 23 21 21
6 3 6 10 5 4 5 7 7 7 6 5 3 2 1 3 5 5 4 6 5 6 6 2 3 5 6 5 5 3 3 2 2 4 3 4 4 3 4 4 6 12 12 6 6 5 3 2 5 2 4 5 6 7 7 7 7 8 9 8 7 8 8 8 7 5 7 11 14 13 10 9 8 9 10 13 17 20 20 20 21 20 22 25 26 24 21 21
8 4 9 12 8 8 10 9 6 6 6 6 4 4 4 6 6 4 5 6 3 6 10 3 5 5 6 6 6 4 0 1 2 2 2 3 3 1 2 1 4 7 9 4 4 6 4 1 6 2 4 5 7 8 7 7 9 9 10 10 9 11 10 10 10 11 13 14 14 15 12 6 5 10 14 17 20 21 21 20 19 20 23 25 26 26 24 22
6 3 7 9 5 7 10 5 3 4 4 4 3 3 4 5 5 4 5 9 8 5 7 6 7 7 6 8 8 4 3 2 0 2 2 4 3 0 1 2 1 3 5 3 3 5 4 1 4 4 5 3 6 8 7 7 9 10 10 10 7 7 7 8 10 12 15 16 14 14 10 4 6 14 17 20 23 22 21 21 21 21 24 27 27 27 25 23
4 1 6 6 2 5 7 4 2 4 1 1 2 5 5 6 8 7 4 9 15 15 11 9 8 6 5 8 7 6 7 7 6 7 7 8 8 5 5 6 7 5 2 2 2 2 2 2 2 3 3 3 6 7 5 6 7 5 4 5 4 4 7 7 8 12 18 19 14 10 8 7 11 16 16 16 19 20 21 23 24 24 26 28 27 26 25 23
Wind_Direction
350 349 349 349 349 348 346 345 346 348 350 350 349 347 343 339 333 330 329 325 319 314 313 314 315 316 313 307 293 282 278 268 263 259 258 242 202 193 182 174 173 184 168 158 168 173 177 181 180 179 186 200 226 235 227 213 196 160 130 240 259 258 178 244 155 158 125 128 139 144 151 135 133 162 167 119 135 143 141 141 136 131 136 144 147 148 150 150
353 352 351 350 349 347 346 344 344 345 346 347 345 341 337 334 331 329 327 322 315 310 310 312 314 313 311 311 299 290 289 283 277 266 258 221 201 195 183 175 174 185 182 168 172 174 174 177 178 178 191 214 230 229 235 201 187 165 126 190 262 185 166 201 146 172 149 132 135 145 157 145 145 170 176 146 129 135 133 133 129 126 133 141 145 147 151 152
355 354 351 351 350 348 346 343 344 343 343 344 342 339 336 331 329 327 325 320 313 309 308 312 313 311 309 311 307 300 305 302 291 279 249 221 208 198 187 177 174 180 185 174 172 172 163 161 169 179 197 222 235 233 245 197 182 179 146 188 255 161 126 157 148 169 150 138 139 144 144 144 170 178 164 139 126 135 139 141 135 133 139 144 147 150 152 154
351 351 351 352 351 348 345 343 342 342 342 340 339 338 334 331 329 325 323 318 312 308 306 312 313 310 309 310 313 310 326 329 301 94 79 84 190 198 190 177 174 175 177 173 173 170 162 163 179 196 204 224 239 234 239 201 180 166 157 216 254 152 108 141 142 142 142 141 142 139 137 160 186 163 145 134 125 138 150 150 145 144 147 148 150 152 154 156
344 344 345 346 348 349 346 342 340 340 339 337 336 335 333 332 329 325 322 316 310 307 304 311 315 311 309 310 317 314 344 24 133 113 75 65 125 184 187 180 175 169 170 170 173 174 176 189 210 235 227 229 238 224 236 209 178 132 176 275 264 161 130 148 147 142 144 139 137 143 144 159 150 126 141 137 131 151 152 152 149 148 150 150 152 153 156 158
341 339 339 339 341 344 344 343 338 336 336 335 334 331 332 330 327 325 319 314 308 305 304 311 317 309 306 308 315 312 298 131 148 144 121 90 94 155 177 184 175 166 168 170 173 178 188 201 222 248 233 227 226 219 239 198 175 154 225 274 229 168 151 155 156 148 147 138 137 150 143 138 123 120 150 134 125 154 148 151 149 149 152 152 153 155 157 160
341 338 336 336 335 337 339 340 337 334 334 334 333 330 330 327 328 325 316 312 305 305 308 310 315 306 303 305 311 306 267 226 156 155 153 112 74 141 170 183 177 167 169 172 175 181 193 204 220 239 234 229 226 233 223 177 169 167 176 229 174 148 153 157 158 151 148 141 137 141 136 137 134 133 149 130 107 146 149 149 148 149 152 153 154 157 161 162
343 340 338 335 334 334 332 333 334 333 334 334 333 329 327 326 325 323 315 309 305 307 309 311 313 301 298 298 307 310 275 241 167 167 162 134 70 164 177 187 180 170 171 175 174 178 192 208 221 230 232 220 238 248 175 157 165 140 144 192 126 97 136 156 154 151 145 139 135 132 125 126 132 122 125 119 114 141 147 148 146 148 152 153 156 160 162 163
346 344 342 339 336 334 331 330 330 331 335 335 332 328 326 323 320 319 312 308 308 307 310 313 306 293 286 277 285 309 271 164 142 165 161 201 253 218 199 194 185 175 174 175 174 180 193 211 217 217 234 238 256 260 160 158 281 160 141 125 98 64 71 136 148 152 147 142 137 126 102 106 124 117 92 35 126 140 146 146 147 149 152 155 158 162 161 163
349 349 348 346 342 339 334 330 328 329 334 334 331 327 324 317 313 313 308 310 309 307 312 307 296 284 269 251 215 268 184 138 135 183 203 260 242 235 221 201 190 178 174 174 177 184 190 199 205 225 272 266 271 262 195 191 152 128 107 87 80 68 74 65 151 150 147 149 144 127 105 118 128 123 112 136 135 142 146 146 149 150 152 155 158 163 163 165
352 353 354 353 350 347 341 335 330 329 331 331 327 327 324 313 309 308 308 311 311 314 307 296 291 273 264 245 210 200 167 152 211 272 297 270 243 238 228 203 190 179 175 176 179 182 185 190 203 268 292 300 308 295 255 174 142 127 106 78 67 76 80 72 185 165 159 160 147 127 110 118 126 119 148 154 143 145 147 147 152 152 154 158 159 164 166 169
352 354 356 356 355 353 348 340 334 330 327 325 323 326 322 309 304 305 311 316 322 324 304 292 285 268 273 258 235 195 153 168 227 266 307 283 241 227 213 195 188 180 175 177 179 181 187 202 236 262 265 304 323 328 6 112 127 119 108 87 63 71 57 357 204 196 317 294 138 120 107 109 105 114 134 152 149 147 149 150 153 155 158 160 161 166 169 171
349 352 352 352 352 352 350 344 337 332 325 320 321 324 317 303 299 305 314 325 335 333 311 295 285 283 280 262 234 157 156 175 209 247 305 295 229 199 184 184 186 182 177 177 179 186 212 259 267 261 265 292 306 292 328 115 118 98 97 104 90 62 25 222 253 112 68 223 135 92 114 167 287 125 123 149 157 153 151 152 155 158 160 160 163 169 171 172
344 346 346 347 347 346 345 342 337 332 326 319 319 319 308 292 292 303 311 326 341 345 332 312 304 301 268 257 182 150 177 189 207 224 287 288 195 169 167 178 181 181 182 185 186 200 230 274 281 268 262 271 280 306 321 120 117 98 95 89 103 103 206 181 236 136 122 207 194 57 123 193 239 154 114 141 160 161 154 154 158 160 162 163 166 173 175 176
338 339 342 342 342 341 340 337 333 330 325 317 315 312 294 279 287 300 300 309 336 353 353 339 335 321 280 270 181 156 177 184 197 197 241 248 166 153 160 173 178 179 187 196 196 212 249 298 291 260 249 267 286 319 33 113 105 129 122 78 116 144 199 236 215 176 148 203 208 109 128 187 206 155 118 136 158 164 158 158 161 163 166 168 173 179 180 180
333 335 338 339 340 338 335 333 330 327 324 315 310 298 283 277 282 285 279 278 312 351 8 4 344 328 290 270 182 163 171 178 176 151 206 216 153 154 156 164 177 181 191 199 212 275 291 295 283 232 240 284 256 29 64 98 137 213 151 139 163 158 186 240 183 200 200 173 206 242 154 166 174 164 145 143 154 165 165 163 164 167 168 171 177 183 183 183
333 333 335 337 340 337 332 331 328 326 323 313 299 284 280 280 278 275 265 255 276 315 295 266 304 305 274 230 179 181 179 176 168 160 191 177 143 151 150 161 180 187 203 222 261 282 280 271 241 194 266 236 141 102 68 121 170 206 179 140 170 166 166 169 150 197 201 162 185 223 184 161 161 171 167 161 151 163 172 170 166 168 170 174 178 181 184 185
335 334 334 337 342 339 335 333 329 328 325 308 285 276 278 284 280 271 262 258 267 286 275 238 228 309 267 207 206 200 181 177 180 182 192 172 154 153 149 162 183 192 217 242 259 256 250 244 162 136 301 271 160 138 140 182 169 176 167 130 161 167 176 185 164 174 179 170 178 183 178 157 153 170 175 174 157 157 171 171 167 168 170 175 176 178 183 184
338 336 335 338 343 343 340 338 334 335 330 304 289 289 297 316 295 259 252 252 246 254 277 225 201 234 281 242 261 221 184 185 189 191 201 193 179 175 163 163 191 199 208 227 247 219 191 80 129 179 271 244 225 183 183 229 300 202 164 134 154 172 199 193 156 162 166 164 176 171 166 159 160 177 182 171 163 151 142 148 164 167 169 173 174 177 182 179
339 337 336 338 344 345 344 344 343 342 337 324 328 334 342 340 311 235 253 258 264 282 283 263 244 254 276 284 288 245 188 192 197 196 201 202 195 192 181 175 194 197 184 179 217 218 186 111 182 210 218 231 233 198 196 232 262 250 167 140 163 176 190 171 125 159 158 149 177 165 149 156 162 177 182 156 151 139 114 107 146 164 168 171 171 174 178 174
341 338 337 338 344 346 346 348 349 347 351 16 39 35 9 358 359 337 303 287 297 301 287 281 269 263 275 283 288 309 241 202 197 196 198 198 192 189 184 178 182 188 195 188 191 220 177 163 218 219 218 231 244 236 232 241 244 250 196 151 168 165 134 101 110 136 144 119 163 143 130 146 164 168 171 148 145 135 120 103 120 158 168 169 169 170 174 173
343 338 337 340 344 347 346 348 351 354 13 53 52 35 17 16 11 355 333 304 307 305 295 291 277 265 271 270 265 300 268 202 190 198 194 184 179 181 177 168 166 196 217 193 172 210 178 214 233 220 222 236 249 251 252 258 250 252 207 165 169 130 86 51 95 96 28 10 109 126 128 143 178 143 61 356 141 138 133 117 119 146 156 162 168 170 172 171
343 338 336 340 344 347 345 346 354 4 23 46 40 34 28 20 13 3 346 303 301 303 290 279 272 265 268 271 269 265 236 188 184 199 192 177 174 182 173 157 166 190 207 192 168 173 190 229 230 219 218 226 245 246 242 260 261 243 188 169 173 146 133 136 120 96 27 55 119 136 129 143 208 125 99 336 345 121 124 127 132 135 134 148 165 172 172 170
342 337 334 339 345 346 344 345 356 6 7 22 27 35 31 12 8 357 342 302 289 293 266 249 261 265 265 281 280 238 207 179 185 193 190 182 172 174 178 173 168 182 212 204 181 189 225 234 221 212 210 211 237 246 234 246 254 243 193 174 174 162 156 140 134 128 88 72 140 141 105 170 191 150 161 319 353 146 85 140 161 151 140 148 163 172 172 171
340 336 333 335 343 345 343 345 350 340 350 9 1 355 344 353 18 358 342 323 294 283 253 234 246 260 259 268 245 183 175 180 192 188 187 188 175 165 184 186 170 195 217 203 193 206 242 245 224 203 210 209 229 249 239 226 240 270 217 184 171 157 141 123 131 136 101 72 207 164 88 263 180 144 165 164 128 187 320 199 201 205 192 167 165 171 172 173
338 335 331 329 337 344 342 344 339 319 334 2 8 7 348 351 28 353 341 31 331 265 225 203 217 243 241 229 182 151 157 195 198 188 186 190 191 183 182 186 181 205 208 194 204 206 236 243 223 200 211 208 218 242 243 217 210 274 235 182 158 142 136 138 142 144 135 178 209 192 145 122 156 143 161 161 140 172 44 244 234 229 224 196 171 175 171 172
335 331 327 325 331 339 340 338 327 319 336 356 4 9 6 10 349 329 333 48 344 243 184 177 198 179 162 179 166 143 152 204 190 191 188 185 198 200 196 208 192 204 200 173 207 227 225 231 217 206 211 206 213 232 236 199 176 261 237 153 141 141 149 154 148 140 151 134 144 203 197 104 148 138 138 157 177 217 229 223 234 231 228 212 183 184 177 169
329 325 321 323 327 333 337 335 346 359 353 350 352 353 5 2 322 323 31 85 329 272 163 181 188 209 189 181 183 189 210 174 166 190 191 186 193 195 202 232 208 235 235 182 220 249 228 216 209 200 206 209 216 224 220 185 180 251 191 143 144 151 155 152 138 117 120 106 127 220 209 99 139 123 128 153 178 216 221 207 213 219 221 216 196 194 189 172
321 317 315 320 323 324 328 330 353 8 349 340 352 354 353 338 318 340 76 96 339 299 170 158 149 196 203 198 212 232 251 172 163 181 186 188 194 192 200 227 220 280 261 208 216 252 249 231 214 182 192 217 223 234 218 186 206 215 143 136 137 141 142 132 123 112 100 104 192 213 194 124 199 193 147 164 191 212 213 198 201 209 214 215 205 204 204 183
311 308 310 318 319 315 307 298 335 3 349 343 350 352 340 329 338 55 47 63 78 239 162 151 181 184 188 201 236 242 263 234 177 169 177 188 198 204 213 226 229 280 278 245 226 240 257 256 240 190 200 213 215 235 221 198 209 177 137 135 128 130 127 97 99 96 91 245 215 196 194 149 137 226 183 178 194 194 195 189 190 198 205 209 209 212 215 196
300 302 306 316 317 306 288 274 272 312 339 340 341 344 339 334 60 86 54 25 50 259 120 185 211 170 169 191 227 215 206 245 174 154 173 191 192 208 214 232 247 298 329 310 270 263 270 269 261 211 214 210 205 230 225 210 197 128 126 131 128 129 83 65 39 61 119 252 224 183 189 135 116 236 209 197 214 176 183 191 184 184 192 201 208 215 216 202
291 295 301 313 311 299 290 278 244 266 302 320 331 337 350 27 52 142 215 1 340 233 198 208 215 177 175 189 219 202 132 211 194 153 175 173 145 194 188 181 188 82 328 280 277 318 296 251 250 249 230 200 172 222 233 243 44 88 110 114 122 132 80 115 119 113 191 259 209 170 164 82 353 277 186 189 217 176 167 186 188 182 183 191 202 210 208 199
284 287 296 306 304 298 293 281 235 246 256 302 331 339 47 78 25 247 246 299 247 221 203 188 194 179 157 165 226 203 127 203 216 176 182 153 123 194 215 214 188 157 222 251 296 324 283 261 254 287 264 187 148 134 204 240 9 113 137 132 131 150 158 162 171 180 208 299 107 144 127 68 269 347 19 63 97 79 87 128 177 179 180 188 197 202 199 195
279 281 290 299 304 300 277 236 219 223 225 312 346 23 70 64 257 261 292 256 233 245 221 174 176 173 151 171 222 156 140 223 204 165 176 127 83 182 223 241 209 154 112 315 296 200 174 255 249 214 238 191 145 144 164 160 129 170 165 140 135 161 162 161 180 185 157 133 22 55 94 155 208 36 4 21 67 70 69 76 130 159 164 183 193 196 195 194
280 279 290 302 304 292 248 201 202 201 218 345 15 62 80 287 258 284 287 252 264 301 276 152 148 149 163 212 255 153 161 201 193 159 165 143 118 186 213 253 225 153 122 294 275 219 165 221 247 211 187 153 134 168 148 106 37 263 168 123 140 194 155 142 181 149 125 122 25 25 62 37 89 46 7 33 72 75 81 90 128 163 161 169 175 185 191 193
281 280 290 301 273 210 101 161 181 165 33 22 46 54 177 223 226 214 254 270 317 350 12 41 70 89 173 241 330 300 199 182 198 178 161 141 102 344 286 277 298 140 146 176 232 294 176 227 279 271 178 144 150 168 134 116 167 296 55 158 212 217 143 119 134 120 114 102 59 83 116 103 108 50 358 33 79 76 84 88 82 101 145 158 154 157 175 177
280 286 287 275 200 156 119 138 138 86 19 48 69 284 245 239 229 200 246 310 337 12 67 48 0 37 81 82 352 334 22 149 241 174 173 124 51 341 325 347 17 52 101 201 191 179 160 244 295 246 179 261 142 134 107 96 117 102 93 229 249 317 102 113 103 103 93 82 72 93 119 141 158 132 317 116 107 92 74 67 53 50 105 138 139 137 150 164
295 290 277 231 173 151 160 183 126 60 27 47 34 267 243 244 257 250 297 340 353 17 70 91 309 33 63 66 340 346 48 37 345 21 94 71 60 328 340 352 357 7 349 332 159 179 119 118 296 269 156 308 62 108 105 15 67 123 168 195 82 76 50 355 125 142 106 101 143 22 51 148 223 168 183 169 131 116 95 88 77 58 84 115 118 118 127 143
319 309 294 216 167 139 143 164 185 196 35 36 266 274 268 250 290 341 4 10 14 46 64 137 111 56 65 83 38 338 46 45 3 14 44 35 20 307 0 360 337 346 341 355 76 275 85 112 289 301 147 131 23 75 167 312 11 79 74 22 64 141 156 188 190 151 125 129 154 116 2 288 250 192 188 182 146 128 116 111 105 84 78 97 107 112 119 127
334 333 323 198 168 138 131 149 146 134 108 293 219 260 284 280 325 347 14 31 38 51 51 233 75 68 126 76 69 328 43 54 24 25 40 14 337 311 5 8 345 333 331 358 65 8 18 93 216 297 352 99 49 313 166 157 61 57 52 18 324 320 156 186 287 112 118 136 153 136 111 259 256 35 107 143 125 111 107 97 90 85 76 77 91 101 106 114
343 335 336 171 166 157 150 156 160 134 174 264 240 265 294 318 333 333 19 48 57 49 43 38 74 80 122 74 60 317 47 63 37 34 36 11 33 5 358 7 355 330 336 12 36 18 15 85 144 294 355 98 197 229 166 146 150 136 135 195 203 204 153 88 315 323 105 122 147 146 148 164 23 56 66 67 117 104 104 101 86 77 73 71 77 87 93 100
347 303 357 130 169 182 163 152 225 196 167 266 282 273 293 315 323 325 15 42 54 49 37 45 78 71 63 86 111 88 65 61 32 44 136 37 47 345 350 12 13 3 25 47 316 313 272 96 63 284 250 193 228 244 115 108 115 121 125 172 170 157 133 134 188 224 80 84 92 97 111 104 55 28 319 222 125 115 112 110 99 83 79 80 80 84 89 92
327 292 192 143 184 198 183 100 301 260 222 277 295 295 301 316 345 8 11 21 33 34 28 32 58 61 46 48 108 101 83 56 322 329 201 77 27 343 359 19 19 17 35 45 311 323 332 74 36 310 300 334 347 8 21 31 58 75 45 3 340 163 127 132 163 148 104 105 111 91 87 111 105 149 157 111 117 118 114 110 103 94 88 86 84 84 87 89
324 302 240 179 233 210 201 232 247 250 285 291 321 309 300 303 340 24 9 4 26 47 57 11 23 78 66 9 24 76 104 91 274 285 8 120 356 357 12 23 20 15 13 321 280 325 345 63 66 32 22 9 18 30 1 347 31 69 329 340 340 110 113 104 85 80 80 89 119 115 116 121 146 145 126 114 123 120 114 110 107 103 99 93 89 86 88 91
338 318 282 335 274 207 210 231 197 195 275 304 331 295 290 306 341 23 360 350 35 84 125 33 75 112 98 341 2 23 119 116 178 277 13 45 353 358 10 22 18 357 341 330 307 316 15 61 87 102 108 117 120 86 305 289 313 331 336 27 29 73 103 115 105 73 85 103 80 101 124 113 134 150 142 156 137 122 119 118 111 108 108 102 95 89 88 90
2 337 300 335 345 202 234 248 210 191 168 113 340 324 43 354 325 12 11 15 43 52 71 58 79 101 75 351 10 11 18 94 82 96 87 33 336 308 344 21 17 1 13 16 9 28 86 43 70 129 141 159 171 211 240 208 103 29 32 37 40 62 86 106 108 98 134 122 71 78 138 132 146 163 149 144 135 127 130 126 118 115 113 105 98 93 89 88
359 278 344 340 337 260 285 253 175 184 201 121 114 337 46 353 302 10 7 0 38 38 47 59 67 95 77 57 75 13 356 16 37 62 93 39 280 300 355 25 24 17 26 26 17 41 104 22 13 111 160 189 171 138 5 61 81 77 64 40 30 67 85 76 96 139 142 113 89 170 149 138 152 165 148 142 135 127 133 131 129 129 119 109 101 95 91 88
354 289 350 358 330 250 328 357 83 96 76 82 85 199 135 136 34 38 354 331 7 30 40 49 57 91 103 105 112 39 9 16 15 12 41 16 340 344 6 15 26 27 31 30 24 51 112 23 345 23 24 357 75 52 42 58 65 60 61 52 51 89 100 87 112 150 143 121 142 168 155 141 150 154 147 151 147 142 145 141 138 135 125 114 106 98 90 86
7 322 334 356 347 280 321 358 26 55 60 52 34 6 101 88 59 48 10 352 358 13 26 73 149 110 102 100 95 68 30 44 17 347 4 23 8 19 25 350 359 23 30 32 24 40 100 359 322 18 49 12 20 34 41 59 58 39 39 43 57 80 90 93 107 110 96 113 132 138 133 132 142 146 150 157 153 146 143 139 135 130 121 113 108 102 94 88
20 359 334 342 339 333 351 11 40 59 42 31 33 8 27 65 53 24 28 37 24 355 5 38 145 111 93 90 88 92 109 164 135 357 3 41 18 31 73 325 308 14 26 23 356 14 60 318 302 24 67 359 4 20 26 56 66 46 29 25 51 76 80 88 102 97 94 109 120 121 122 119 117 127 134 140 141 137 134 132 129 123 117 112 107 105 102 97
28 42 353 340 321 341 356 4 64 77 42 17 42 27 29 54 42 22 32 36 48 45 12 29 84 78 61 63 68 61 353 350 55 340 21 80 76 126 104 51 29 34 18 12 2 5 37 4 316 40 64 334 341 3 10 55 64 42 20 8 27 83 100 109 122 124 122 124 124 123 127 138 133 125 119 121 125 124 123 123 122 120 118 114 110 107 106 105
33 94 10 6 305 333 352 346 33 70 101 275 62 69 69 61 43 46 48 16 31 52 52 50 72 78 59 54 44 2 347 347 346 359 28 56 51 52 70 60 69 84 45 19 39 353 27 54 1 48 70 308 324 353 13 56 51 20 346 328 335 82 99 110 127 133 135 137 140 144 148 152 141 128 117 117 120 120 122 124 123 122 119 115 113 109 106 106
Height
1517 1516 1515 1514 1513 1512 1511 1510 1509 1509 1508 1508 1507 1507 1506 1506 1506 1505 1505 1504 1503 1503 1502 1502 1501 1501 1500 1500 1499 1499 1499 1499 1499 1498 1497 1497 1498 1499 1500 1501 1503 1504 1505 1506 1507 1508 1509 1510 1512 1513 1515 1515 1516 1515 1515 1517 1517 1518 1520 1526 1528 1526 1525 1522 1521 1522 1522 1526 1528 1528 1529 1529 1529 1529 1530 1532 1533 1534 1536 1539 1541 1542 1544 1546 1547 1549 1552 1554
1517 1516 1515 1514 1513 1512 1511 1510 1509 1508 1508 1507 1506 1506 1505 1505 1505 1504 1504 1503 1502 1502 1501 1501 1500 1500 1499 1499 1498 1498 1498 1498 1497 1496 1496 1496 1496 1497 1498 1500 1501 1503 1504 1505 1505 1507 1508 1509 1511 1513 1514 1514 1515 1513 1513 1515 1515 1516 1520 1525 1525 1522 1520 1517 1517 1518 1519 1523 1527 1528 1529 1528 1527 1529 1531 1532 1533 1534 1537 1540 1541 1544 1546 1548 1549 1551 1554 1555
1517 1516 1514 1513 1512 1511 1510 1509 1508 1507 1507 1506 1506 1505 1505 1504 1504 1503 1503 1502 1501 1500 1500 1500 1500 1499 1498 1498 1497 1497 1497 1497 1496 1495 1494 1495 1495 1496 1498 1499 1500 1501 1503 1505 1505 1507 1508 1509 1512 1513 1514 1514 1513 1512 1512 1513 1513 1514 1518 1524 1522 1516 1516 1515 1516 1517 1517 1520 1523 1526 1528 1527 1528 1530 1530 1530 1532 1534 1536 1538 1539 1542 1546 1548 1550 1552 1554 1556
1516 1515 1514 1513 1512 1511 1510 1508 1507 1506 1506 1505 1505 1504 1504 1503 1503 1502 1501 1501 1500 1499 1499 1499 1498 1498 1497 1497 1497 1497 1496 1496 1494 1494 1494 1494 1494 1495 1497 1498 1499 1500 1502 1504 1506 1507 1508 1510 1512 1512 1513 1513 1511 1512 1512 1511 1512 1513 1516 1520 1516 1513 1516 1516 1516 1517 1517 1519 1521 1524 1527 1529 1529 1528 1527 1528 1532 1536 1535 1535 1536 1539 1543 1546 1549 1552 1554 1556
1515 1514 1513 1513 1512 1510 1509 1508 1507 1506 1505 1504 1504 1503 1503 1502 1502 1501 1500 1500 1499 1498 1498 1498 1497 1497 1497 1496 1497 1496 1496 1497 1494 1493 1494 1494 1494 1495 1496 1498 1498 1499 1502 1504 1505 1507 1508 1509 1511 1512 1513 1511 1510 1511 1510 1508 1510 1512 1514 1514 1512 1513 1516 1516 1516 1517 1518 1519 1522 1524 1526 1528 1527 1527 1527 1527 1531 1535 1534 1535 1536 1538 1542 1545 1549 1552 1554 1556
1514 1513 1512 1511 1510 1510 1509 1507 1506 1505 1504 1503 1503 1502 1502 1501 1501 1500 1499 1498 1498 1497 1497 1497 1497 1496 1496 1496 1496 1496 1496 1496 1493 1493 1494 1494 1494 1495 1496 1497 1497 1498 1500 1502 1503 1505 1507 1508 1510 1511 1510 1509 1509 1509 1508 1506 1507 1512 1513 1510 1511 1512 1514 1516 1516 1517 1518 1519 1522 1524 1524 1524 1525 1529 1529 1528 1530 1532 1533 1536 1537 1539 1543 1546 1549 1552 1554 1556
1513 1512 1511 1510 1509 1508 1507 1506 1505 1504 1503 1502 1502 1501 1501 1500 1500 1499 1498 1498 1497 1496 1496 1496 1496 1495 1495 1495 1495 1496 1495 1493 1492 1493 1493 1494 1495 1495 1496 1497 1497 1498 1499 1500 1502 1504 1505 1507 1509 1508 1508 1508 1507 1506 1505 1505 1505 1509 1512 1510 1511 1512 1513 1515 1516 1517 1518 1518 1520 1521 1523 1523 1525 1528 1529 1529 1531 1531 1533 1536 1538 1542 1544 1548 1550 1553 1555 1557
1513 1511 1510 1509 1508 1507 1506 1505 1504 1503 1502 1502 1501 1500 1499 1499 1498 1498 1497 1497 1496 1495 1495 1495 1495 1495 1495 1494 1494 1495 1494 1492 1491 1492 1493 1493 1494 1495 1495 1496 1496 1497 1497 1499 1500 1502 1504 1505 1506 1506 1507 1507 1505 1505 1504 1506 1507 1508 1511 1510 1511 1513 1515 1516 1516 1517 1517 1518 1519 1521 1523 1524 1525 1528 1529 1531 1531 1531 1534 1537 1540 1543 1546 1549 1551 1553 1556 1557
1512 1511 1509 1508 1507 1506 1505 1503 1503 1502 1501 1501 1500 1499 1498 1498 1497 1497 1496 1496 1495 1495 1494 1494 1494 1494 1494 1494 1494 1494 1492 1490 1491 1492 1492 1493 1494 1494 1495 1495 1496 1496 1497 1499 1500 1502 1503 1503 1503 1505 1506 1505 1504 1504 1504 1507 1510 1507 1509 1510 1513 1516 1518 1519 1518 1517 1517 1517 1518 1520 1523 1525 1526 1529 1531 1531 1532 1533 1535 1539 1541 1543 1547 1549 1552 1554 1556 1558
1512 1510 1509 1507 1506 1505 1504 1503 1502 1501 1500 1500 1499 1498 1497 1497 1496 1496 1495 1495 1494 1494 1494 1494 1493 1493 1493 1493 1493 1493 1490 1490 1491 1491 1492 1492 1493 1493 1493 1494 1495 1495 1496 1498 1499 1500 1501 1500 1502 1504 1505 1504 1503 1504 1503 1506 1507 1506 1509 1511 1514 1517 1518 1520 1521 1521 1519 1518 1517 1519 1523 1525 1525 1528 1533 1533 1533 1535 1536 1540 1542 1543 1547 1549 1552 1554 1556 1558
1511 1510 1508 1507 1505 1504 1503 1502 1501 1500 1499 1498 1498 1497 1496 1496 1495 1495 1494 1494 1493 1493 1493 1493 1492 1492 1493 1492 1492 1491 1488 1489 1490 1490 1491 1491 1491 1492 1492 1493 1494 1495 1496 1497 1498 1498 1499 1500 1503 1504 1505 1504 1503 1503 1502 1501 1502 1505 1509 1513 1516 1517 1520 1522 1522 1524 1523 1520 1518 1517 1520 1525 1525 1528 1532 1532 1534 1536 1537 1540 1543 1545 1547 1550 1552 1555 1557 1559
1511 1509 1508 1506 1505 1503 1502 1501 1499 1499 1498 1497 1497 1496 1495 1495 1494 1494 1493 1493 1493 1492 1492 1492 1492 1492 1492 1492 1490 1488 1488 1489 1490 1490 1490 1490 1490 1490 1491 1492 1494 1495 1495 1496 1497 1498 1500 1501 1503 1504 1504 1503 1504 1504 1503 1501 1502 1505 1508 1515 1520 1519 1522 1524 1522 1525 1525 1522 1519 1517 1524 1530 1528 1529 1531 1531 1534 1536 1538 1541 1543 1546 1548 1550 1552 1555 1557 1558
1510 1509 1507 1505 1504 1503 1502 1500 1499 1498 1497 1496 1496 1495 1495 1494 1493 1493 1492 1492 1492 1492 1491 1491 1491 1491 1491 1489 1486 1486 1488 1489 1489 1489 1489 1489 1488 1489 1490 1491 1493 1496 1497 1497 1498 1499 1501 1502 1503 1504 1503 1503 1504 1503 1504 1502 1504 1509 1510 1515 1523 1525 1526 1525 1523 1525 1525 1525 1522 1521 1535 1541 1531 1529 1531 1532 1535 1537 1539 1542 1544 1546 1548 1550 1552 1554 1556 1558
1510 1508 1507 1505 1503 1502 1501 1499 1498 1496 1495 1495 1495 1494 1494 1493 1493 1492 1492 1492 1491 1491 1491 1491 1491 1490 1490 1487 1483 1486 1487 1488 1488 1487 1488 1488 1487 1488 1489 1491 1493 1496 1497 1498 1498 1499 1500 1501 1502 1502 1502 1502 1502 1501 1503 1504 1507 1512 1515 1518 1525 1531 1530 1524 1524 1525 1524 1526 1525 1524 1539 1543 1532 1529 1530 1531 1535 1536 1539 1541 1544 1546 1548 1550 1552 1554 1556 1557
1510 1508 1506 1505 1503 1501 1500 1498 1496 1495 1495 1494 1494 1493 1492 1492 1492 1491 1491 1491 1491 1491 1490 1491 1490 1490 1489 1485 1482 1485 1485 1486 1487 1486 1487 1487 1487 1488 1488 1490 1493 1495 1498 1498 1498 1499 1500 1500 1500 1500 1499 1500 1500 1502 1506 1509 1512 1512 1520 1529 1529 1530 1531 1526 1523 1524 1524 1526 1526 1527 1538 1540 1531 1529 1529 1530 1534 1536 1538 1541 1543 1546 1548 1550 1552 1554 1555 1557
1509 1508 1506 1504 1502 1500 1499 1497 1495 1494 1493 1493 1493 1492 1491 1492 1491 1491 1491 1491 1491 1491 1490 1490 1490 1490 1489 1484 1482 1483 1484 1485 1485 1485 1487 1487 1487 1488 1489 1491 1493 1496 1497 1498 1498 1498 1498 1499 1498 1497 1497 1499 1501 1505 1509 1515 1519 1514 1518 1531 1532 1529 1534 1530 1524 1522 1522 1524 1526 1529 1537 1538 1531 1529 1530 1530 1533 1536 1538 1540 1542 1545 1547 1549 1551 1553 1554 1556
1509 1508 1506 1504 1502 1500 1498 1496 1494 1493 1492 1492 1492 1491 1491 1491 1491 1491 1490 1490 1491 1490 1490 1490 1489 1489 1486 1481 1481 1482 1483 1484 1484 1485 1487 1488 1488 1489 1490 1492 1494 1496 1497 1497 1498 1497 1498 1498 1498 1498 1497 1499 1501 1505 1513 1520 1524 1518 1515 1524 1527 1526 1531 1532 1527 1523 1521 1524 1528 1529 1533 1534 1530 1528 1530 1531 1533 1536 1537 1538 1540 1543 1546 1548 1550 1552 1553 1555
1508 1507 1505 1504 1502 1500 1498 1496 1494 1492 1492 1491 1491 1491 1491 1491 1491 1491 1490 1490 1490 1490 1490 1489 1490 1490 1484 1480 1481 1482 1482 1484 1485 1486 1487 1488 1489 1490 1491 1492 1494 1496 1497 1497 1497 1496 1498 1496 1496 1499 1499 1500 1501 1505 1515 1518 1516 1516 1516 1522 1526 1526 1528 1527 1525 1521 1520 1525 1528 1530 1533 1531 1529 1529 1530 1531 1532 1535 1536 1537 1539 1541 1544 1547 1549 1551 1553 1554
1507 1506 1504 1503 1501 1499 1497 1495 1493 1492 1491 1490 1490 1490 1490 1491 1490 1490 1489 1489 1489 1488 1488 1487 1487 1487 1483 1480 1481 1482 1483 1484 1485 1486 1487 1488 1489 1491 1492 1493 1494 1496 1497 1498 1497 1495 1497 1497 1499 1503 1504 1502 1501 1503 1509 1508 1507 1509 1510 1517 1524 1528 1526 1522 1519 1516 1517 1525 1528 1529 1532 1531 1530 1531 1531 1531 1532 1534 1536 1536 1538 1540 1542 1545 1548 1550 1551 1553
1506 1505 1503 1502 1500 1498 1496 1495 1493 1491 1491 1490 1490 1490 1490 1490 1490 1490 1489 1488 1487 1485 1484 1484 1483 1482 1480 1480 1480 1482 1483 1484 1485 1485 1486 1487 1489 1490 1492 1493 1494 1495 1497 1498 1498 1495 1496 1502 1504 1504 1503 1500 1497 1499 1502 1502 1502 1505 1508 1513 1518 1522 1524 1519 1518 1517 1515 1525 1531 1528 1530 1531 1531 1532 1531 1531 1532 1533 1535 1535 1537 1539 1541 1543 1546 1548 1550 1552
1505 1504 1502 1501 1499 1497 1496 1494 1493 1491 1490 1490 1490 1490 1490 1490 1490 1490 1488 1485 1483 1483 1482 1481 1482 1480 1478 1478 1479 1481 1483 1483 1484 1485 1485 1487 1488 1490 1491 1492 1493 1496 1496 1496 1497 1495 1497 1504 1504 1500 1498 1495 1494 1497 1499 1499 1500 1503 1508 1513 1517 1519 1522 1520 1519 1521 1519 1526 1532 1529 1531 1533 1531 1531 1532 1531 1532 1533 1534 1534 1536 1539 1541 1542 1544 1547 1550 1552
1504 1503 1502 1500 1498 1497 1495 1494 1493 1491 1490 1490 1490 1490 1490 1490 1490 1490 1488 1484 1480 1480 1479 1478 1480 1479 1476 1477 1478 1480 1482 1482 1483 1484 1484 1486 1487 1489 1490 1491 1494 1496 1495 1495 1498 1500 1502 1504 1499 1495 1494 1493 1494 1496 1497 1499 1500 1504 1506 1511 1518 1519 1521 1524 1522 1522 1523 1527 1534 1533 1535 1537 1533 1532 1534 1534 1533 1533 1533 1534 1535 1539 1541 1542 1544 1546 1548 1550
1503 1502 1501 1500 1498 1497 1495 1494 1493 1491 1491 1490 1490 1490 1490 1490 1489 1489 1488 1486 1480 1477 1477 1477 1477 1476 1475 1475 1476 1478 1480 1480 1481 1482 1483 1485 1486 1487 1489 1491 1494 1496 1495 1497 1500 1505 1506 1501 1493 1491 1493 1493 1495 1496 1497 1499 1500 1503 1505 1510 1516 1514 1518 1528 1528 1525 1524 1528 1533 1535 1537 1538 1536 1537 1538 1537 1536 1534 1534 1534 1535 1538 1540 1542 1544 1545 1547 1549
1502 1501 1500 1499 1498 1496 1495 1494 1493 1491 1491 1490 1490 1490 1490 1489 1489 1488 1486 1485 1482 1476 1474 1475 1475 1475 1475 1474 1473 1475 1478 1479 1479 1481 1483 1484 1485 1487 1488 1489 1493 1496 1496 1496 1498 1503 1501 1492 1487 1489 1492 1494 1496 1496 1498 1501 1501 1500 1501 1505 1510 1509 1511 1519 1525 1525 1526 1531 1531 1531 1540 1542 1537 1540 1541 1538 1538 1538 1536 1534 1535 1538 1540 1541 1543 1545 1547 1548
1501 1500 1499 1498 1498 1496 1495 1494 1492 1492 1491 1490 1490 1489 1489 1489 1487 1487 1486 1486 1485 1477 1472 1474 1474 1474 1473 1473 1473 1473 1476 1478 1478 1480 1481 1483 1485 1486 1487 1488 1492 1496 1495 1495 1497 1500 1496 1487 1486 1490 1492 1494 1496 1496 1495 1498 1502 1499 1496 1495 1499 1505 1510 1515 1520 1525 1535 1541 1531 1528 1545 1548 1537 1539 1542 1539 1539 1540 1538 1536 1535 1537 1539 1541 1542 1544 1547 1548
1501 1500 1498 1498 1497 1495 1495 1493 1492 1492 1490 1490 1490 1488 1489 1488 1487 1487 1486 1490 1490 1478 1472 1474 1473 1473 1472 1472 1473 1474 1478 1478 1476 1478 1480 1482 1484 1484 1487 1488 1489 1492 1492 1492 1495 1495 1489 1484 1485 1489 1491 1493 1496 1496 1492 1493 1501 1502 1490 1485 1491 1501 1510 1516 1517 1523 1536 1539 1527 1523 1539 1548 1542 1541 1542 1540 1541 1541 1539 1538 1535 1536 1539 1540 1541 1544 1546 1548
1500 1499 1498 1497 1496 1495 1494 1493 1493 1492 1490 1491 1489 1488 1489 1487 1488 1486 1487 1499 1495 1476 1472 1474 1472 1473 1472 1472 1472 1475 1482 1478 1474 1478 1478 1480 1482 1482 1487 1488 1487 1489 1486 1490 1497 1492 1483 1483 1485 1487 1489 1493 1496 1495 1488 1487 1499 1499 1483 1480 1492 1499 1506 1512 1512 1520 1526 1524 1525 1525 1529 1542 1548 1545 1542 1541 1542 1542 1541 1540 1537 1536 1538 1539 1541 1543 1545 1547
1499 1498 1497 1496 1495 1494 1493 1492 1492 1491 1490 1490 1488 1489 1488 1487 1489 1485 1492 1507 1495 1472 1472 1474 1472 1473 1472 1472 1472 1473 1476 1474 1475 1479 1477 1479 1481 1481 1486 1486 1486 1488 1483 1490 1499 1489 1479 1482 1484 1485 1489 1492 1491 1487 1481 1484 1493 1490 1477 1478 1488 1495 1501 1505 1509 1517 1517 1523 1539 1535 1525 1541 1552 1545 1540 1541 1542 1544 1541 1538 1537 1537 1538 1539 1540 1542 1544 1546
1498 1497 1496 1495 1495 1494 1493 1492 1491 1490 1490 1489 1488 1488 1487 1487 1487 1485 1497 1506 1487 1471 1474 1474 1473 1473 1471 1472 1472 1471 1472 1473 1476 1477 1475 1478 1480 1480 1484 1483 1483 1486 1483 1486 1492 1485 1477 1477 1477 1480 1486 1487 1482 1477 1475 1481 1486 1480 1476 1480 1486 1495 1502 1504 1510 1515 1518 1530 1544 1535 1525 1542 1554 1546 1542 1544 1543 1541 1536 1534 1535 1536 1537 1538 1539 1541 1544 1545
1497 1496 1495 1495 1494 1493 1493 1492 1491 1490 1489 1488 1488 1487 1486 1487 1487 1494 1507 1500 1480 1474 1474 1473 1473 1471 1471 1473 1473 1472 1473 1474 1473 1474 1476 1477 1478 1479 1481 1481 1482 1484 1484 1483 1484 1481 1475 1471 1472 1474 1478 1476 1474 1473 1471 1474 1476 1474 1480 1486 1491 1499 1503 1506 1509 1513 1528 1539 1535 1526 1523 1533 1548 1546 1539 1539 1536 1531 1531 1532 1533 1534 1536 1537 1538 1540 1543 1545
1495 1495 1494 1494 1493 1493 1492 1491 1491 1490 1489 1489 1488 1486 1487 1487 1490 1504 1508 1489 1478 1478 1474 1473 1472 1470 1472 1474 1474 1474 1474 1474 1473 1474 1478 1477 1478 1480 1481 1483 1484 1486 1488 1486 1482 1479 1474 1474 1473 1469 1469 1468 1470 1472 1469 1468 1469 1473 1482 1489 1499 1508 1510 1516 1517 1518 1539 1543 1523 1518 1519 1524 1540 1541 1532 1530 1527 1525 1527 1529 1530 1532 1534 1536 1537 1539 1542 1545
1494 1494 1493 1493 1492 1491 1491 1490 1490 1490 1489 1489 1488 1486 1488 1493 1498 1504 1496 1481 1481 1480 1472 1472 1472 1470 1472 1473 1474 1474 1474 1475 1474 1474 1477 1478 1480 1481 1482 1485 1486 1492 1496 1490 1484 1482 1478 1475 1470 1467 1465 1465 1471 1476 1473 1470 1471 1477 1484 1490 1507 1521 1525 1534 1537 1533 1539 1531 1512 1511 1518 1528 1539 1534 1527 1526 1525 1525 1526 1527 1528 1530 1531 1534 1536 1539 1542 1544
1493 1493 1492 1492 1491 1490 1490 1489 1489 1490 1489 1488 1488 1486 1490 1500 1502 1496 1487 1483 1481 1474 1468 1469 1469 1469 1472 1474 1475 1474 1475 1476 1474 1475 1476 1476 1481 1482 1481 1481 1480 1489 1495 1490 1488 1488 1485 1477 1468 1468 1468 1463 1468 1477 1480 1480 1478 1481 1485 1492 1507 1523 1535 1545 1542 1535 1534 1526 1513 1509 1518 1536 1542 1532 1527 1528 1526 1526 1526 1527 1530 1530 1532 1534 1536 1539 1541 1544
1492 1492 1492 1491 1490 1490 1489 1489 1489 1489 1489 1488 1487 1487 1494 1503 1498 1486 1483 1481 1475 1469 1467 1467 1468 1470 1472 1474 1475 1473 1476 1477 1473 1475 1476 1477 1482 1484 1482 1480 1477 1483 1488 1489 1490 1489 1493 1488 1473 1470 1470 1464 1465 1471 1475 1478 1479 1480 1480 1485 1496 1506 1520 1533 1530 1528 1534 1531 1521 1517 1528 1543 1545 1536 1532 1529 1527 1528 1528 1529 1530 1532 1534 1536 1537 1538 1540 1542
1491 1491 1491 1490 1490 1490 1488 1489 1488 1488 1489 1487 1487 1491 1498 1502 1493 1485 1482 1476 1471 1469 1466 1465 1468 1473 1474 1473 1473 1471 1474 1476 1473 1475 1478 1479 1483 1484 1482 1480 1478 1480 1486 1493 1490 1484 1489 1487 1469 1463 1463 1461 1465 1465 1464 1472 1481 1480 1476 1483 1492 1491 1496 1508 1511 1513 1522 1532 1534 1536 1542 1543 1538 1536 1533 1529 1528 1528 1529 1530 1529 1531 1534 1535 1537 1538 1539 1541
1490 1490 1490 1489 1490 1489 1488 1489 1488 1488 1488 1487 1490 1496 1497 1493 1487 1483 1478 1472 1471 1471 1469 1470 1472 1476 1479 1476 1475 1473 1472 1473 1474 1477 1479 1479 1483 1484 1481 1480 1477 1476 1482 1489 1488 1485 1489 1482 1466 1462 1462 1459 1463 1463 1461 1471 1482 1482 1482 1487 1487 1482 1485 1499 1507 1506 1514 1537 1548 1545 1547 1544 1538 1539 1535 1530 1530 1529 1530 1531 1530 1532 1533 1534 1537 1537 1538 1540
1490 1490 1489 1489 1489 1489 1489 1489 1488 1489 1488 1488 1494 1497 1491 1484 1479 1477 1474 1471 1471 1470 1472 1479 1480 1480 1483 1481 1479 1477 1474 1475 1475 1477 1480 1481 1485 1486 1482 1480 1477 1475 1478 1481 1482 1483 1487 1483 1469 1465 1467 1462 1458 1461 1462 1465 1472 1481 1488 1486 1479 1480 1484 1492 1510 1519 1527 1548 1555 1546 1548 1549 1546 1547 1541 1534 1533 1533 1533 1533 1533 1533 1533 1534 1536 1537 1538 1538
1490 1489 1489 1488 1488 1488 1488 1489 1489 1489 1489 1491 1496 1494 1486 1481 1476 1473 1472 1470 1470 1470 1474 1482 1483 1480 1484 1487 1486 1481 1478 1481 1481 1479 1481 1484 1488 1487 1484 1482 1478 1475 1474 1475 1478 1477 1480 1485 1475 1465 1469 1465 1457 1463 1471 1468 1467 1475 1480 1477 1481 1495 1498 1495 1507 1523 1536 1555 1560 1554 1553 1551 1548 1548 1543 1538 1537 1536 1536 1534 1534 1535 1534 1534 1535 1536 1537 1538
1490 1489 1488 1487 1488 1488 1488 1489 1489 1489 1491 1494 1498 1492 1484 1480 1475 1472 1471 1469 1471 1473 1475 1480 1480 1480 1484 1487 1489 1484 1479 1484 1486 1485 1487 1490 1491 1487 1483 1482 1479 1476 1473 1471 1476 1475 1474 1485 1483 1469 1465 1466 1464 1470 1480 1479 1472 1471 1475 1477 1482 1492 1498 1497 1500 1510 1529 1550 1558 1560 1562 1554 1545 1542 1540 1539 1538 1536 1539 1537 1535 1536 1536 1535 1535 1534 1535 1537
1490 1489 1488 1487 1487 1488 1488 1488 1488 1490 1493 1494 1494 1490 1483 1479 1475 1473 1472 1470 1472 1475 1477 1478 1479 1482 1484 1484 1488 1485 1480 1485 1489 1489 1490 1492 1491 1488 1482 1481 1480 1476 1473 1470 1473 1474 1473 1481 1486 1475 1466 1470 1475 1476 1479 1481 1479 1478 1482 1486 1488 1487 1489 1494 1497 1500 1517 1539 1550 1558 1565 1555 1541 1537 1538 1539 1537 1536 1539 1540 1538 1539 1538 1537 1537 1536 1536 1537
1490 1490 1489 1487 1488 1488 1488 1489 1489 1490 1492 1491 1489 1486 1482 1479 1477 1475 1474 1472 1473 1475 1476 1477 1478 1481 1483 1484 1487 1485 1483 1487 1491 1491 1491 1490 1491 1491 1484 1481 1481 1477 1475 1474 1475 1477 1477 1481 1486 1482 1475 1477 1478 1473 1471 1474 1476 1479 1484 1486 1488 1489 1491 1501 1508 1504 1507 1523 1534 1544 1556 1555 1542 1537 1539 1539 1538 1538 1539 1540 1540 1542 1541 1541 1540 1538 1538 1539
1490 1490 1488 1488 1489 1488 1488 1489 1489 1489 1490 1489 1487 1484 1481 1479 1478 1477 1475 1474 1475 1475 1475 1477 1478 1480 1482 1484 1485 1484 1485 1490 1492 1492 1492 1490 1490 1490 1485 1481 1480 1478 1478 1480 1479 1477 1476 1481 1486 1484 1479 1477 1474 1468 1468 1470 1470 1474 1479 1481 1484 1486 1490 1501 1511 1510 1511 1519 1523 1531 1549 1553 1543 1539 1540 1540 1539 1539 1540 1540 1540 1542 1543 1542 1541 1540 1539 1540
1490 1489 1487 1487 1489 1489 1489 1490 1489 1489 1489 1486 1484 1482 1481 1480 1479 1478 1476 1476 1476 1477 1477 1478 1479 1480 1482 1482 1482 1483 1486 1492 1493 1491 1492 1491 1488 1487 1484 1481 1480 1479 1479 1481 1480 1476 1476 1483 1489 1487 1480 1475 1471 1468 1468 1469 1471 1477 1480 1480 1482 1484 1485 1491 1497 1502 1514 1525 1524 1534 1552 1553 1544 1540 1540 1539 1539 1540 1541 1541 1541 1543 1544 1543 1543 1542 1540 1540
1489 1488 1486 1486 1487 1488 1489 1490 1490 1489 1488 1486 1484 1483 1482 1481 1480 1479 1479 1479 1478 1479 1480 1481 1481 1481 1481 1480 1481 1483 1487 1494 1495 1491 1491 1491 1488 1486 1484 1482 1481 1481 1481 1483 1481 1478 1481 1489 1492 1493 1494 1492 1488 1485 1482 1478 1477 1482 1483 1480 1482 1483 1483 1489 1493 1498 1514 1525 1523 1535 1552 1551 1543 1540 1539 1539 1540 1541 1542 1543 1543 1543 1544 1545 1546 1545 1544 1542
1489 1488 1486 1485 1486 1486 1487 1487 1487 1488 1487 1487 1487 1485 1484 1482 1480 1480 1481 1480 1479 1480 1481 1482 1482 1482 1482 1483 1485 1485 1486 1491 1494 1492 1491 1491 1489 1487 1485 1484 1483 1482 1482 1482 1480 1478 1483 1490 1491 1497 1507 1513 1512 1506 1500 1491 1485 1484 1484 1481 1482 1483 1483 1489 1496 1505 1519 1525 1523 1532 1546 1548 1543 1540 1540 1540 1540 1541 1543 1544 1545 1545 1546 1547 1548 1548 1547 1545
1491 1490 1489 1486 1485 1485 1486 1485 1485 1486 1486 1487 1488 1486 1485 1485 1483 1481 1481 1481 1480 1480 1481 1483 1483 1484 1486 1488 1490 1490 1488 1489 1491 1492 1492 1492 1491 1488 1486 1485 1484 1483 1482 1481 1479 1479 1485 1490 1492 1496 1502 1505 1506 1501 1493 1489 1489 1489 1488 1485 1484 1484 1484 1487 1496 1508 1518 1524 1531 1534 1536 1542 1545 1542 1540 1540 1539 1541 1543 1543 1545 1546 1547 1547 1548 1548 1548 1547
1492 1493 1491 1490 1488 1486 1486 1484 1485 1486 1485 1486 1488 1486 1487 1488 1485 1483 1482 1482 1482 1481 1482 1483 1484 1486 1489 1491 1492 1495 1493 1490 1491 1491 1492 1493 1491 1489 1488 1487 1486 1485 1483 1481 1480 1481 1488 1495 1495 1494 1495 1493 1492 1491 1486 1486 1489 1490 1489 1489 1488 1485 1484 1487 1497 1507 1511 1522 1539 1538 1529 1536 1542 1539 1538 1539 1539 1542 1543 1543 1545 1547 1547 1548 1548 1549 1549 1549
1493 1493 1492 1492 1492 1489 1487 1485 1484 1485 1485 1485 1486 1487 1488 1489 1488 1488 1486 1484 1482 1482 1484 1487 1486 1487 1490 1490 1493 1496 1496 1494 1494 1494 1494 1494 1492 1491 1490 1489 1488 1486 1485 1484 1483 1484 1492 1498 1495 1493 1494 1491 1487 1487 1486 1487 1490 1490 1490 1491 1490 1487 1487 1491 1500 1505 1503 1514 1531 1534 1530 1534 1537 1535 1537 1538 1538 1541 1544 1545 1546 1547 1547 1548 1548 1550 1550 1550
1493 1493 1491 1490 1490 1489 1487 1486 1484 1485 1485 1486 1487 1488 1489 1490 1490 1490 1489 1487 1486 1485 1486 1490 1489 1488 1489 1489 1491 1497 1499 1500 1500 1498 1495 1495 1495 1495 1496 1494 1491 1488 1487 1488 1488 1488 1495 1500 1497 1494 1494 1491 1489 1488 1488 1488 1491 1493 1494 1494 1492 1491 1491 1495 1503 1505 1504 1511 1521 1527 1532 1535 1534 1534 1536 1537 1539 1541 1544 1547 1548 1548 1549 1548 1549 1550 1551 1552
1495 1495 1493 1491 1489 1487 1487 1486 1485 1486 1487 1488 1489 1490 1490 1491 1492 1491 1490 1491 1493 1491 1488 1489 1489 1489 1490 1490 1492 1498 1499 1499 1500 1499 1497 1497 1497 1497 1499 1498 1495 1492 1490 1491 1491 1491 1496 1501 1498 1494 1495 1495 1492 1490 1490 1492 1493 1495 1498 1497 1496 1498 1499 1501 1506 1508 1511 1520 1524 1527 1535 1539 1535 1533 1535 1537 1540 1542 1544 1548 1549 1549 1550 1550 1550 1551 1552 1554
1497 1498 1496 1494 1492 1489 1488 1488 1487 1488 1490 1491 1492 1492 1492 1493 1493 1492 1492 1493 1495 1495 1492 1491 1491 1491 1493 1493 1494 1498 1499 1497 1498 1498 1496 1497 1497 1497 1497 1497 1495 1495 1495 1495 1495 1494 1497 1502 1499 1496 1501 1502 1496 1494 1495 1493 1493 1496 1500 1501 1501 1502 1504 1505 1506 1506 1511 1521 1529 1533 1538 1540 1535 1534 1536 1538 1540 1542 1545 1547 1548 1550 1551 1550 1551 1552 1553 1554
1497 1497 1497 1497 1495 1491 1491 1490 1489 1491 1493 1493 1492 1492 1493 1495 1493 1493 1495 1495 1494 1495 1495 1493 1493 1494 1496 1497 1497 1498 1498 1497 1497 1496 1495 1496 1496 1496 1496 1495 1495 1497 1497 1498 1500 1498 1498 1502 1502 1503 1507 1506 1502 1499 1495 1494 1503 1510 1507 1504 1504 1504 1504 1506 1506 1505 1506 1513 1523 1530 1533 1534 1532 1532 1536 1539 1541 1543 1545 1547 1548 1550 1550 1550 1551 1552 1554 1555